Location: Round Knob
(37.2473°N, 88.7376°W)
Time: 20:09:21
(UTC+00:00)

N. Korean satellite - Pass Details

Date: 30 September 2021
Orbit: 450 x 495 km, 97.3° (Epoch: 25 October)

Event Time Altitude Azimuth Distance (km) Brightness Sun altitude
Rises 10:37:20 0° 22° (NNE) 2,549 10.7 -15.2°
Reaches altitude 10° 10:39:34 10° 33° (NNE) 1,672 9.9 -14.8°
Maximum altitude 10:42:47 31° 97° (E) 882 8.6 -14.1°
Drops below altitude 10° 10:46:02 10° 161° (SSE) 1,678 9.4 -13.5°
Sets 10:48:16 0° 172° (S) 2,559 10.3 -13.1°
